Weather Roundup
Issued by NWS Corpus Christi, TX

Current Version | Previous Version | Text Only | Print | Product List | Glossary On
Versions: 1 2 3 4 5 6 7 8 9 10 11 12 13 14 15 16 17 18 19 20 21 22 23 24 25 26 27 28 29 30 31 32 33 34 35 36 37 38 39 40 41 42 43 44 45 46 47 48 49 50
431
ASUS44 KCRP 211710
HRRCRP

SOUTH TEXAS REGIONAL WEATHER ROUNDUP
NATIONAL WEATHER SERVICE CORPUS CHRISTI TX
1100 AM CST SAT JAN 21 2017


TXZ229>244-211800-
...CORPUS CHRISTI AREA OBSERVATIONS...

CITY           SKY/WX    TMP DP  RH WIND       PRES   REMARKS
CORPUS CHRISTI MOSUNNY   73  64  73 SW14      29.61F
NAS CORPUS CHR SUNNY     76  64  66 SW9       29.61F
ROCKPORT       SUNNY     74  65  73 VRB7      29.61S
KINGSVILLE NAS SUNNY     79  61  53 SW10      29.61F
ALICE          SUNNY     78  58  49 SW13      29.60F
ORANGE GROVE   SUNNY     80  57  45 W10       29.61F
FALFURRIAS     SUNNY     76  57  51 SW6       29.62F
$$

...VICTORIA AREA OBSERVATIONS...

CITY           SKY/WX    TMP DP  RH WIND       PRES   REMARKS
VICTORIA       MOSUNNY   71  64  78 S12       29.60F
BEEVILLE       FAIR      73  63  70 SW8       29.61F
PLEASANTON     SUNNY     68  56  65 W5        29.62F
SAN ANTONIO    MOSUNNY   66  56  70 SW7       29.61F
$$

...LAREDO AREA OBSERVATIONS...

CITY           SKY/WX    TMP DP  RH WIND       PRES   REMARKS
LAREDO         SUNNY     77  52  41 CALM      29.62F
COTULLA        SUNNY     72  49  44 VRB3      29.60F
DEL RIO        CLOUDY    55  55 100 E6        29.58F FOG
MCALLEN        SUNNY     75  60  59 CALM      29.64F
HEBBRONVILLE   SUNNY     79  44  29 W7        29.63F
$$

...OTHER TEXAS OBSERVATIONS...

CITY           SKY/WX    TMP DP  RH WIND       PRES   REMARKS
BROWNSVILLE    SUNNY     81  60  48 W9        29.65F
HOUSTON        CLOUDY    70  64  81 S9        29.61F
COL. STATION   CLOUDY    67  64  90 S16       29.57F
AUSTIN         PTSUNNY   67  58  72 SW17      29.59F
WACO           CLOUDY    59  58  96 S5        29.57F FOG
FORT WORTH     CLOUDY    60  55  83 S7        29.53F
WICHITA FALLS  PTSUNNY   51  40  65 E5        29.52F
LUBBOCK        CLOUDY    52  38  58 SW16      29.48S
EL PASO        LGT RAIN  44  36  73 W17G35    29.66R
$$

...MARINE OBSERVATIONS...

STATION/POSITION TIME  SKY/WX   TEMP    WIND        PRES    VSBY  WAVE   SWELL
                                AIR SEA DIR/SP/G                  HT/PER HT/PER
                 (UTC)          (F)     (DEG/KT/KT) (MB)    (MI)  (FT/S) (FT/S)
PORT ARANSAS     1700            62 64  190/ 14/ 15 1002.8F
BUOY 90 E PORT A 1650            74 74  190/ 14/ 16 1003.0F         4/ 5   2/ 8
BUOY 45 SE BAFFI 1650            68     210/ 17/ 21 1002.9S         4/ 7   2/ 7
BUOY 200 E PT IS 1650            76 75  190/ 14/ 16 1005.6S         5/ 8   3/ 8
BUOY 15 E GALVES 1650            69 67  150/  4/  6 1003.6F         3/ 6   3/ 6
$$




USA.gov is the U.S. government's official web portal to all federal, state and local government web resources and services.